GFSFLT1_sfc_wetblb_057.txt.gz
Wetbulb
67.13 67.25 67.61 67.31 67.37 68.13 68.29 68.89 70.29 71.20 71.64 71.22 72.49 73.59 72.69 71.72 72.60 72.73 71.31 71.36 70.61 69.73 71.65 73.41 74.58 75.32 75.82 75.20 74.77 74.70 74.73 73.72 74.34
65.83 67.11 67.80 67.78 67.63 68.19 68.26 68.83 69.75 70.84 71.64 71.86 72.54 72.88 73.59 73.26 71.86 73.13 72.29 70.42 71.48 72.45 70.87 73.50 74.40 74.95 74.62 75.65 75.05 74.40 73.63 75.13 74.09
63.73 66.61 67.92 68.33 68.04 67.97 68.63 68.99 69.90 70.55 72.25 72.21 73.01 73.18 73.76 74.05 74.16 72.61 73.65 72.65 70.66 71.15 71.87 73.28 73.37 74.69 74.70 75.70 75.90 75.62 74.19 74.14 75.02
63.11 64.72 67.72 68.47 68.45 68.37 68.83 69.11 69.69 70.23 70.90 72.64 73.18 73.95 73.55 74.36 75.07 74.60 73.11 73.65 73.11 71.81 71.33 72.69 75.80 75.67 75.25 75.21 75.18 75.29 74.84 73.14 73.94
60.02 64.41 68.21 68.94 69.10 68.51 68.41 68.45 69.01 69.70 71.03 72.18 73.22 74.01 74.36 73.92 74.78 75.75 74.35 72.77 72.89 73.05 72.43 73.14 73.40 76.15 76.00 75.59 75.34 74.72 74.64 74.47 74.84
59.06 62.53 67.17 68.68 69.27 68.41 68.16 68.31 68.75 69.62 70.14 71.96 72.99 73.84 74.21 74.99 74.75 74.93 75.48 74.84 73.72 73.58 73.72 73.99 74.69 73.78 75.69 75.51 75.25 75.02 74.67 75.03 74.87
60.91 60.66 65.34 67.74 68.82 68.82 68.78 68.86 68.77 69.56 70.06 71.12 73.35 73.75 74.52 74.32 75.18 75.20 75.53 76.07 75.55 74.00 74.69 74.40 75.42 75.78 74.65 75.57 75.40 75.10 75.29 75.39 74.95
61.18 61.95 64.98 66.45 68.20 69.19 69.45 69.32 69.15 69.61 70.39 71.11 71.63 73.94 74.33 74.62 75.36 75.79 75.84 75.71 76.08 75.97 74.45 75.52 74.93 74.97 76.02 75.77 75.78 75.69 74.85 74.86 75.13
58.84 61.18 62.18 63.17 64.92 68.15 69.36 70.09 69.90 70.17 70.38 71.17 72.25 71.88 73.96 74.89 75.65 75.76 75.79 75.98 76.00 76.23 75.87 74.81 75.23 75.64 74.84 75.89 76.43 70.96 69.42 73.63 75.00
59.18 60.83 60.90 60.27 62.65 64.07 68.82 70.39 71.22 70.90 71.45 71.92 71.96 72.30 72.63 74.25 75.17 75.32 75.70 76.17 76.17 76.01 76.01 76.40 75.62 75.31 76.08 75.80 76.25 68.38 67.38 69.30 75.10
58.06 59.23 59.29 60.43 60.21 61.13 64.21 68.77 72.77 72.63 72.69 72.45 72.33 72.06 72.87 73.30 74.58 75.25 75.46 75.68 75.66 75.82 76.13 76.02 75.99 75.90 75.96 76.35 76.50 68.11 65.63 67.37 74.71
63.60 64.15 64.64 64.51 64.98 65.37 65.74 66.09 65.69 72.68 72.65 72.94 72.67 72.93 73.02 73.71 74.80 74.99 75.25 75.13 75.54 76.05 75.96 76.05 75.88 76.29 76.05 76.10 76.58 65.72 64.72 65.52 73.55
63.96 65.44 66.39 67.27 67.52 66.09 65.70 66.65 68.34 69.14 71.44 73.40 72.64 72.89 73.74 75.23 75.16 75.33 75.03 75.73 75.68 76.60 76.55 76.10 76.49 76.12 76.58 73.51 76.40 66.88 62.64 64.99 74.72
64.33 64.39 65.10 67.64 68.85 68.18 67.39 67.63 67.22 67.60 66.52 69.53 72.52 73.17 73.53 74.60 75.52 75.46 76.10 75.91 76.51 76.55 76.61 76.54 76.21 76.12 76.49 76.78 75.54 75.60 61.77 60.51 74.86
61.98 62.50 63.31 64.51 66.50 68.80 70.95 68.85 67.61 65.16 68.73 68.72 70.38 74.09 74.05 73.85 74.25 75.36 76.27 76.19 76.24 76.49 76.44 76.02 75.87 75.74 75.97 76.87 76.99 67.40 63.51 58.90 61.25
57.04 60.97 62.02 63.34 64.66 69.07 71.23 71.90 68.56 68.12 68.69 70.91 73.11 74.62 73.72 74.02 74.32 74.84 74.12 75.59 75.84 75.89 76.22 76.09 75.68 75.60 75.35 75.76 76.37 76.61 61.70 57.55 58.36
54.52 56.29 60.34 62.76 62.05 65.89 68.58 71.15 72.46 72.06 68.91 72.83 73.46 72.30 74.73 74.24 74.15 74.57 73.83 75.56 76.33 76.22 76.11 76.00 75.57 75.25 75.13 75.20 74.98 75.97 76.01 68.48 62.74
52.93 54.07 59.20 61.50 60.94 62.71 66.88 69.80 74.15 75.40 73.38 72.58 70.81 70.88 75.46 75.37 75.13 73.72 74.15 62.33 59.63 72.96 69.93 69.31 75.90 75.86 74.95 74.50 73.88 74.04 67.45 69.75 68.73
52.83 52.61 54.53 60.99 62.24 65.17 67.45 69.44 72.69 74.32 74.92 75.58 74.77 71.14 73.10 74.72 74.28 74.63 70.09 62.54 59.54 47.73 46.88 45.34 45.03 55.00 69.27 61.64 55.85 49.22 48.67 51.21 53.93
53.13 53.44 53.78 60.36 61.09 64.02 67.47 69.27 70.84 73.13 73.05 73.34 73.54 74.53 71.63 73.55 72.03 74.08 69.42 66.95 64.99 62.57 54.47 47.22 44.68 44.32 45.77 53.75 49.76 45.95 47.04 47.40 48.13

GFSFLT1_sfc_wetblb_060.txt.gz
Wetbulb
63.54 65.66 65.29 65.61 67.04 67.68 67.65 68.49 69.46 69.61 68.90 69.72 71.11 71.73 71.27 71.12 70.34 70.49 69.68 68.10 67.96 67.52 70.94 72.72 73.08 73.98 74.61 73.85 73.70 72.94 72.54 71.81 71.96
63.05 65.42 65.80 66.18 67.06 67.97 68.04 68.52 69.09 69.60 69.33 69.25 71.20 71.31 71.67 71.43 71.72 70.83 70.22 68.98 68.23 68.88 69.74 72.82 73.09 73.79 74.43 74.23 73.90 73.00 73.29 72.05 72.11
63.66 65.69 66.34 66.92 66.98 67.79 68.40 68.86 69.54 70.13 70.17 69.58 70.04 71.66 71.66 71.01 70.74 72.15 72.87 70.20 68.61 70.35 70.25 70.92 72.42 73.01 73.58 74.43 74.15 73.43 72.49 72.80 73.06
64.53 65.67 66.46 67.14 67.23 68.11 68.34 68.98 69.51 69.93 70.25 69.96 70.01 70.90 71.98 71.98 71.47 70.75 71.55 72.29 70.18 69.86 69.62 70.97 71.15 72.88 73.29 73.14 74.28 73.58 72.60 72.12 73.45
65.70 66.48 67.09 67.75 67.68 67.56 67.92 68.00 68.67 69.34 70.19 70.42 70.69 71.28 71.40 71.88 72.26 72.23 70.82 70.68 72.74 71.40 69.84 69.79 71.15 74.10 73.42 73.29 73.68 74.51 73.82 72.48 73.14
64.04 66.23 67.15 67.54 67.62 66.99 67.45 67.71 68.07 68.87 69.92 70.77 71.37 71.63 71.62 71.65 72.51 73.16 72.94 71.73 71.44 72.64 71.75 70.75 70.84 73.55 74.46 73.89 73.83 73.57 74.52 74.15 73.38
61.52 65.57 66.59 67.26 67.14 66.99 67.27 67.59 67.72 68.27 69.19 70.96 71.63 72.08 72.22 71.84 72.08 73.43 74.38 73.93 72.71 71.66 72.74 72.03 71.33 71.89 73.96 74.80 74.41 74.31 73.87 73.84 74.10
59.52 64.27 66.15 66.98 67.09 66.85 67.13 67.35 67.54 67.98 69.00 70.06 71.53 71.87 72.08 72.27 73.00 72.89 73.77 74.66 74.28 73.46 72.02 72.61 72.83 72.35 72.61 74.33 74.75 74.89 74.03 73.82 73.39
58.79 64.09 66.15 67.08 67.46 67.26 67.12 67.23 67.39 67.75 68.59 69.43 71.09 71.37 71.72 72.40 72.78 73.88 73.45 73.88 74.48 74.76 73.66 72.76 72.90 72.68 73.05 73.51 74.62 70.16 68.77 72.91 73.81
57.60 59.72 63.51 67.00 67.72 67.66 67.68 67.89 68.14 67.61 68.48 69.37 70.42 71.01 71.51 72.28 73.02 73.29 74.13 74.45 74.43 74.41 74.48 73.86 72.91 73.51 73.22 72.84 74.60 67.26 66.84 68.70 73.87
61.05 61.71 62.23 62.27 62.26 63.31 67.98 68.90 68.74 68.79 68.91 69.07 69.13 69.56 71.83 72.57 73.14 73.49 74.09 74.33 74.21 74.48 74.82 74.60 74.26 73.13 73.78 74.43 74.07 66.33 64.91 66.87 73.23
63.16 64.25 64.50 63.18 62.99 63.20 65.00 65.92 67.76 68.91 68.59 69.05 69.31 69.26 69.67 71.94 73.43 73.69 74.05 74.13 74.48 74.83 74.87 74.82 75.05 75.25 74.61 73.75 74.26 65.00 63.45 64.97 72.37
61.26 62.65 64.84 67.01 68.44 69.34 66.26 64.51 66.51 69.03 69.54 69.57 69.15 69.81 70.54 71.40 72.42 73.73 73.92 74.40 74.45 75.35 75.36 75.12 75.53 75.11 75.58 72.25 75.05 65.67 62.10 64.85 73.96
60.44 60.97 62.03 65.61 68.28 69.40 69.58 67.55 64.17 64.53 68.37 69.42 70.38 70.93 71.44 72.02 72.48 72.67 74.11 74.60 74.86 74.69 75.08 75.02 74.76 74.92 75.27 75.36 74.28 74.36 60.67 60.33 74.33
54.36 57.08 60.72 60.94 63.17 67.18 68.60 69.83 70.22 66.95 65.88 67.44 69.01 72.23 71.89 72.71 72.79 73.58 74.17 74.10 74.38 74.81 74.70 74.51 74.51 74.33 74.71 75.49 75.63 65.92 60.88 59.04 61.50
52.51 53.72 60.29 60.62 58.31 60.42 65.82 68.01 70.61 71.39 73.19 67.10 68.42 70.52 71.13 71.86 72.71 73.83 74.33 73.99 73.67 74.11 74.55 74.50 74.48 74.45 74.30 74.68 75.70 75.88 60.70 57.80 58.46
51.59 52.29 54.66 60.28 60.22 60.00 62.54 66.34 69.06 71.70 73.74 72.63 69.85 68.91 70.10 71.58 71.51 71.81 71.66 74.90 74.82 74.60 74.53 74.53 74.41 74.49 74.39 74.88 75.07 75.30 74.02 67.45 63.39
50.57 51.04 51.89 56.54 59.32 59.17 59.64 65.09 67.12 70.08 72.94 73.49 72.85 70.94 69.52 71.17 72.09 70.54 71.77 68.29 67.16 73.56 74.16 71.47 74.91 75.00 75.18 74.60 74.26 73.60 69.39 69.46 69.74
50.19 51.18 51.46 52.30 59.02 59.19 60.54 63.88 66.38 68.06 71.79 71.65 71.02 71.12 71.83 70.86 71.96 71.52 69.19 62.95 58.09 47.77 46.81 46.29 47.10 51.99 66.20 69.01 56.29 54.89 53.63 50.73 53.26
51.06 50.42 51.46 51.30 56.16 60.31 61.50 62.79 63.95 65.65 68.85 69.79 68.96 68.69 70.22 71.74 69.26 72.58 67.81 65.39 64.76 62.72 55.24 46.36 43.64 43.46 50.54 53.99 54.15 46.19 45.83 45.83 46.37

GFSFLT1_sfc_wetblb_063.txt.gz
Wetbulb
63.24 63.95 65.02 65.77 66.74 67.96 68.15 68.69 69.08 68.32 68.26 68.55 69.56 69.83 70.12 70.22 69.46 69.00 68.80 67.99 66.85 66.95 67.56 69.85 71.01 72.50 73.23 72.29 72.40 71.98 71.58 70.64 70.47
61.32 62.95 64.53 65.49 66.79 67.46 68.13 68.88 69.17 68.42 68.41 69.00 69.73 69.89 70.50 70.51 70.22 69.71 69.24 67.90 68.13 67.60 67.54 70.56 71.22 71.94 72.90 73.06 72.85 72.39 71.91 71.25 70.46
61.28 62.42 64.09 65.75 66.23 66.99 67.64 68.41 69.19 69.26 68.66 69.02 69.95 70.39 70.63 70.57 70.41 70.00 70.23 68.84 67.55 66.92 67.62 69.25 71.10 71.61 72.32 73.09 73.16 72.90 72.24 71.68 71.07
61.45 62.45 63.30 65.60 65.94 67.09 67.74 68.09 68.51 69.03 68.83 68.29 69.00 70.27 70.78 70.56 70.36 70.69 70.38 69.46 69.29 69.34 68.67 68.38 69.45 71.38 71.79 72.25 73.23 72.98 72.10 71.77 72.40
59.99 63.42 63.78 65.91 65.88 66.84 67.35 67.44 67.97 68.64 68.99 68.64 68.86 69.95 70.41 70.22 70.16 70.34 71.04 71.54 69.54 69.44 69.13 69.83 69.99 70.12 71.54 71.96 72.68 73.29 72.56 71.81 72.34
61.48 62.88 64.08 65.60 66.21 66.44 66.71 67.45 67.69 68.22 69.02 69.12 69.30 69.21 69.77 70.31 70.07 69.75 69.27 69.86 71.82 71.02 69.54 69.24 68.49 71.20 71.87 71.84 72.09 72.61 73.24 72.72 72.20
55.02 63.05 64.07 65.39 66.20 66.62 66.66 67.53 67.52 68.15 68.74 69.71 69.67 69.40 69.36 69.39 70.19 70.59 70.88 70.29 69.68 70.91 72.00 70.93 69.46 69.40 71.01 72.76 72.87 72.94 73.02 73.42 72.68
53.79 57.23 64.07 65.33 66.05 66.72 66.68 66.88 67.43 67.81 68.71 69.52 70.12 69.43 69.37 69.39 70.15 71.06 71.45 71.55 71.40 70.54 70.78 71.92 71.60 70.96 70.32 72.26 73.28 73.63 73.07 73.04 73.11
54.20 60.17 64.39 65.60 66.48 66.86 66.67 66.78 67.14 67.48 67.93 68.81 70.05 69.77 69.58 70.27 70.29 70.73 71.40 72.33 72.41 71.91 70.89 70.61 71.42 71.16 71.08 70.71 72.62 68.83 68.32 72.11 72.69
56.65 61.54 64.47 65.51 66.28 66.88 66.82 66.99 67.53 67.07 67.53 68.82 69.54 69.79 70.26 70.62 70.92 70.71 70.86 72.16 73.12 73.14 72.27 71.54 70.47 71.00 71.30 71.08 71.77 66.22 66.08 68.31 73.34
61.43 60.21 61.25 64.71 66.98 67.20 67.40 67.74 67.63 67.71 67.55 67.99 68.45 69.35 70.13 70.82 71.02 71.30 72.04 71.72 71.91 72.64 73.53 72.99 72.23 71.49 71.61 71.52 71.92 65.49 64.55 66.40 72.06
60.08 63.69 65.79 64.64 62.58 63.64 64.74 66.23 67.14 66.52 66.35 67.31 67.92 68.56 69.51 70.42 71.29 71.25 71.50 72.31 72.50 72.91 72.98 73.49 73.73 73.14 72.34 72.26 72.73 63.28 62.88 64.94 71.66
58.48 59.73 63.88 67.86 68.29 65.24 64.07 63.19 67.19 66.25 66.18 66.96 66.55 67.95 69.73 70.70 71.11 71.46 71.77 72.17 72.96 73.50 73.78 73.48 74.00 74.04 74.19 70.52 72.81 64.40 61.47 63.57 71.96
55.78 59.71 58.66 62.08 66.88 67.65 68.35 66.64 66.74 66.35 66.34 66.54 67.81 67.56 67.95 68.89 71.64 71.94 72.62 73.08 73.57 73.65 73.68 74.00 73.85 73.87 74.50 74.52 73.04 72.92 60.27 59.85 72.57
51.73 54.29 59.52 59.25 60.90 64.62 67.13 70.15 72.09 70.17 67.92 66.81 69.60 69.62 68.94 69.49 69.81 71.59 72.95 72.75 73.36 73.58 73.70 73.52 73.43 73.35 73.66 74.53 74.85 65.23 61.05 58.81 60.33
50.30 50.97 53.88 59.66 57.70 59.08 64.25 67.04 70.81 71.03 70.90 67.69 66.64 69.44 70.00 70.23 70.48 70.95 71.37 71.92 72.46 72.83 73.16 72.93 72.99 73.13 72.95 73.32 74.42 74.54 60.33 57.79 57.97
48.78 50.16 51.04 57.41 58.51 57.23 59.10 63.89 67.18 69.75 71.33 71.36 70.75 69.58 68.50 69.93 69.94 70.35 71.62 72.39 72.50 72.61 72.83 72.82 72.88 73.04 72.99 73.39 73.69 74.11 72.98 67.24 64.63
48.52 49.40 50.61 51.64 56.73 57.97 58.44 60.96 63.71 65.97 70.33 70.31 69.14 68.97 69.72 69.63 70.40 69.52 69.95 70.47 68.37 72.26 73.13 70.45 73.20 73.48 73.75 73.43 73.21 73.54 68.69 69.43 72.01
48.38 48.14 49.27 49.24 50.60 55.95 58.99 60.10 60.44 62.57 66.04 68.30 67.45 67.14 67.47 67.74 68.58 69.88 70.07 67.24 61.91 48.14 48.16 47.64 47.27 49.45 62.25 72.66 62.74 58.69 55.25 53.62 53.62
49.42 48.10 48.43 49.17 49.37 53.95 58.37 59.71 60.48 60.99 62.66 64.44 65.25 65.42 65.85 67.13 66.42 68.64 68.98 65.88 65.52 65.05 54.89 45.81 44.37 43.83 46.37 47.27 57.61 50.54 49.63 49.09 48.00

GFSFLT1_sfc_wetblb_069.txt.gz
Wetbulb
67.38 68.08 68.72 68.94 69.55 70.11 70.56 71.45 72.23 72.31 72.51 72.56 73.09 73.25 73.98 74.77 75.20 73.23 73.28 74.34 73.41 72.98 72.65 73.23 75.86 76.48 76.95 77.40 77.79 77.96 77.99 76.95 76.46
65.10 66.70 68.69 69.21 69.97 70.29 71.04 71.67 72.11 72.20 72.81 73.19 73.25 73.27 73.90 74.41 74.75 74.55 73.93 75.48 75.02 73.68 75.13 73.43 74.83 75.68 76.00 76.67 77.26 77.93 78.16 76.80 77.08
63.36 66.09 67.29 69.13 70.07 70.73 71.67 71.84 72.47 72.75 72.93 72.97 73.56 73.62 73.81 73.95 74.47 74.73 74.98 74.74 74.67 75.42 75.14 74.81 74.53 75.19 75.51 76.13 76.62 77.15 77.68 76.92 77.62
64.07 65.75 66.75 68.22 70.25 71.49 71.88 71.87 71.94 72.44 72.23 72.75 73.07 73.60 73.92 74.17 74.39 74.17 74.60 74.15 74.50 75.42 75.33 75.27 75.03 75.56 75.78 75.86 76.14 76.67 76.90 76.87 76.98
63.05 66.00 67.17 68.23 69.82 70.90 71.07 71.95 71.74 71.94 72.26 72.02 72.96 73.56 74.06 74.05 74.63 74.93 73.82 74.44 74.12 74.68 74.70 75.21 75.19 75.33 75.20 75.50 75.83 76.40 76.34 75.83 76.19
61.35 65.47 66.94 68.08 68.78 70.28 71.24 72.09 72.25 72.49 72.42 71.84 72.23 73.15 72.98 73.71 74.25 73.97 74.57 74.89 75.18 74.89 74.92 75.29 74.87 75.00 74.99 75.65 75.50 75.89 76.37 76.53 76.31
58.17 59.96 65.47 67.07 67.76 69.24 70.94 71.69 72.58 72.54 72.89 72.80 72.76 72.72 72.91 73.37 74.11 74.47 74.53 75.23 75.45 74.84 75.41 75.19 74.90 75.38 75.54 75.28 75.19 75.26 75.15 75.59 76.09
63.06 63.90 62.64 64.79 66.79 68.91 70.26 70.98 72.06 72.98 73.04 73.47 73.47 73.16 73.12 73.60 74.52 75.03 75.32 75.34 75.27 74.86 75.02 75.24 75.92 75.38 75.13 75.26 75.06 74.32 75.45 75.35 75.58
60.87 63.04 64.92 65.06 66.42 68.53 70.15 70.62 71.00 72.29 72.81 73.19 73.51 73.16 72.99 74.41 74.73 74.84 74.85 75.23 75.31 75.21 75.00 74.66 75.27 75.03 74.68 74.50 74.09 68.07 67.04 72.74 75.00
59.69 61.68 63.34 65.13 67.72 67.98 70.63 70.84 70.83 71.52 72.48 73.64 72.74 72.77 73.40 74.15 74.70 74.46 74.62 75.08 75.06 75.28 75.40 75.30 75.12 74.90 74.86 74.82 75.49 66.03 65.20 67.14 74.53
57.88 60.38 62.73 64.08 66.19 68.85 70.26 71.05 70.88 72.53 72.41 73.12 72.80 72.72 73.14 73.87 74.37 74.22 74.88 74.69 74.53 74.79 74.17 74.67 75.13 75.04 75.51 75.27 75.50 65.23 63.84 65.52 73.81
54.80 58.26 62.12 64.21 68.27 69.84 69.21 71.23 72.36 72.36 72.36 72.83 72.69 72.60 72.99 73.52 73.78 73.96 74.43 74.41 74.63 74.98 74.60 74.63 74.48 74.76 75.33 75.70 75.69 63.43 62.54 65.19 73.10
53.28 58.21 61.87 63.95 70.46 70.07 69.43 71.80 71.49 71.80 71.98 72.42 72.32 73.10 73.49 74.17 74.35 74.17 74.11 74.50 74.89 75.56 75.77 75.10 74.74 74.50 75.01 71.50 75.45 65.46 60.89 64.37 73.44
53.48 55.50 61.70 65.52 69.51 70.70 71.78 72.41 72.24 71.50 71.88 71.73 73.10 73.40 73.74 74.49 74.74 74.77 75.26 75.32 75.82 75.70 75.40 75.91 75.65 76.01 76.48 76.07 74.74 74.79 60.42 58.79 73.94
52.57 53.11 58.09 62.74 64.88 67.11 71.57 71.79 72.32 71.90 71.76 73.59 74.48 74.79 74.29 74.85 75.22 74.23 74.21 75.87 75.38 75.77 75.71 75.23 75.34 75.54 75.35 76.06 77.34 66.34 62.40 58.14 60.24
52.71 52.90 53.76 58.51 61.34 64.08 66.43 69.83 72.71 71.05 72.31 72.57 73.40 73.87 74.55 74.92 75.71 75.34 75.92 75.64 75.34 74.50 75.32 74.34 74.35 74.18 74.32 75.02 76.57 77.43 61.28 57.53 57.47
53.76 54.03 53.34 55.38 56.72 58.20 60.39 65.80 67.99 69.94 72.54 73.52 72.84 73.14 73.32 73.74 73.71 73.88 75.09 74.61 74.57 74.18 74.00 74.01 74.07 74.27 74.49 75.34 76.23 76.99 77.70 73.98 68.70
52.65 55.69 56.13 56.10 56.32 56.42 57.35 60.22 63.82 66.31 68.90 73.10 73.84 73.83 73.31 72.52 72.41 72.69 74.00 74.86 74.44 74.48 76.31 72.97 74.86 75.26 75.70 75.59 75.70 76.31 70.91 72.33 77.01
52.55 53.42 56.47 57.46 57.39 56.96 57.33 58.35 59.90 62.48 65.33 68.15 70.37 70.84 72.02 71.86 74.78 74.62 73.97 73.20 72.56 52.40 53.26 50.46 49.74 51.91 63.62 76.09 64.59 57.55 55.18 52.46 53.54
51.66 54.38 55.89 55.87 57.20 58.07 58.24 58.10 58.64 61.04 63.45 64.70 66.19 66.00 68.71 68.52 69.65 73.27 74.25 73.88 72.73 72.63 64.15 49.38 48.65 48.29 48.29 48.83 55.64 50.46 49.38 49.38 48.29

GFSFLT1_sfc_wetblb_072.txt.gz
Wetbulb
69.16 70.04 71.08 71.51 72.12 72.24 72.36 72.82 73.31 73.77 75.58 75.99 75.65 75.56 76.56 77.39 77.84 75.02 75.37 76.16 75.15 74.83 74.32 74.42 76.62 77.57 78.03 78.49 78.32 78.64 79.04 78.22 76.96
66.72 69.13 70.46 71.17 72.25 72.76 72.89 72.93 74.14 74.77 76.10 76.72 76.78 75.04 77.31 77.39 77.64 77.10 75.80 78.68 77.27 75.77 77.06 75.67 76.34 76.70 77.27 77.52 78.00 78.45 78.99 77.30 77.85
64.79 67.01 69.53 70.84 71.79 72.66 73.40 73.71 73.85 74.36 75.62 76.32 76.01 75.90 76.21 75.86 76.46 76.94 77.41 76.89 76.93 77.46 76.91 77.04 76.72 76.43 76.18 76.65 77.56 78.13 78.84 77.71 78.33
63.67 64.63 66.95 69.86 71.67 72.90 73.71 74.10 74.28 74.19 74.33 74.83 75.00 76.00 76.57 77.24 76.21 76.35 76.51 75.85 76.44 77.06 77.48 77.51 77.57 76.96 76.58 76.08 76.76 77.87 78.16 78.11 77.56
63.52 65.04 67.14 69.09 71.39 72.99 73.39 73.69 73.91 74.04 74.41 74.28 74.89 76.59 77.48 76.63 77.19 77.69 75.78 76.17 76.61 77.24 77.20 77.94 77.75 77.78 77.34 76.86 76.65 77.75 77.91 77.55 76.79
61.80 63.62 65.97 69.03 70.15 71.99 73.13 73.42 74.70 74.15 74.51 74.28 74.74 75.91 75.26 75.97 76.20 76.31 76.94 77.02 77.14 77.11 77.39 77.47 77.65 77.69 77.17 76.99 76.26 76.47 77.31 77.51 77.30
63.37 63.32 64.36 68.01 69.91 71.02 73.24 74.27 75.44 75.55 74.61 74.90 74.50 74.64 74.76 76.31 76.98 77.47 76.76 77.93 78.29 77.22 78.12 77.42 77.47 77.87 77.58 77.28 76.96 76.22 76.08 76.40 77.17
63.45 65.07 66.02 66.15 68.93 70.53 72.34 73.93 75.32 75.65 74.84 76.04 75.61 75.89 74.91 76.45 78.08 78.16 78.74 78.67 78.40 78.05 77.57 77.36 77.82 77.57 77.46 77.40 77.00 75.77 76.48 75.87 75.65
63.30 64.67 66.11 67.75 68.82 68.73 70.71 72.51 74.22 75.41 75.91 75.74 76.86 76.84 76.19 77.59 78.18 78.49 78.32 78.60 78.51 78.29 77.74 77.81 77.74 77.31 77.33 76.90 76.12 68.58 67.12 72.75 75.30
62.71 64.19 65.92 67.46 68.53 70.17 70.62 71.46 73.63 74.99 76.05 76.47 76.87 77.31 77.21 77.78 78.28 78.23 78.54 78.09 78.34 78.46 78.04 77.87 77.76 77.21 77.36 77.23 77.77 66.21 65.11 67.41 75.27
60.79 62.34 64.27 66.78 68.54 69.54 71.04 71.95 72.37 74.46 75.13 76.78 77.21 77.15 77.26 77.75 78.12 77.89 78.06 78.37 78.29 78.89 78.08 78.43 78.40 77.27 77.93 77.46 77.69 65.80 63.97 65.63 75.29
60.11 60.77 62.34 66.32 68.74 69.92 71.52 72.67 72.49 74.08 74.10 75.29 75.84 76.63 77.05 77.73 78.00 77.92 77.73 77.53 77.89 77.76 77.73 77.72 77.61 77.74 78.37 78.29 78.27 63.82 63.07 66.63 75.00
58.11 59.32 61.36 66.14 69.35 71.46 73.38 73.75 73.31 73.01 73.51 75.51 75.88 76.45 76.93 77.97 78.05 78.28 77.84 78.26 78.30 78.32 77.30 76.53 76.46 76.65 77.85 73.53 78.54 66.29 60.83 66.30 75.07
55.60 56.20 57.16 64.29 69.58 71.41 74.26 73.93 73.12 74.89 74.56 74.85 76.10 75.92 75.91 77.32 77.66 78.46 78.68 78.82 78.63 78.74 77.78 77.94 78.20 77.92 78.37 78.37 76.58 76.94 59.73 58.84 75.55
55.19 55.14 55.68 59.20 65.91 69.08 74.02 74.09 74.29 76.09 75.36 75.94 77.09 77.21 76.10 77.32 77.85 76.38 76.23 78.34 77.67 77.62 78.00 77.57 78.02 77.41 76.83 77.29 78.43 67.21 62.09 57.78 60.88
53.48 55.98 55.31 57.13 60.98 67.48 70.80 74.88 74.53 73.73 76.10 76.92 76.25 76.74 77.02 77.00 76.84 76.49 78.25 77.65 76.96 76.06 77.05 76.10 75.96 75.72 75.94 76.33 77.47 78.70 61.59 56.85 57.55
53.16 54.57 55.52 57.11 57.48 60.88 63.50 68.86 72.11 73.86 74.88 76.05 75.73 75.54 76.06 76.34 76.24 75.92 76.58 76.66 76.70 76.26 75.88 75.50 75.44 75.59 75.51 76.34 77.05 77.68 78.94 75.62 68.89
52.96 54.31 56.20 57.15 57.16 57.59 58.49 62.21 65.30 69.33 73.64 75.33 74.52 75.14 75.35 75.68 76.03 75.74 76.28 76.89 76.57 76.27 78.13 74.84 76.14 76.15 76.66 76.42 76.60 77.32 71.77 73.30 79.06
52.79 53.42 56.46 57.18 58.44 58.13 58.23 60.17 62.08 64.20 67.84 72.79 75.14 74.79 74.23 74.04 74.50 75.03 75.28 75.47 75.31 56.23 56.37 53.81 53.81 53.99 65.94 77.05 65.61 59.07 55.67 57.23 56.17
52.37 55.17 55.93 57.15 58.75 59.35 60.46 60.37 59.80 61.40 62.94 65.55 70.31 72.01 73.87 74.78 73.47 75.23 74.68 75.27 76.27 75.43 66.44 52.36 51.82 52.54 52.00 53.27 55.49 52.90 49.46 47.28 47.83

GFSFLT1_sfc_wetblb_075.txt.gz
Wetbulb
69.78 70.50 71.24 71.54 72.27 72.56 73.06 73.80 75.51 75.63 76.11 76.64 77.10 76.60 76.36 76.64 78.45 74.85 74.32 77.62 75.27 73.98 73.98 74.81 80.91 78.76 78.22 78.27 78.92 77.93 79.39 77.51 76.98
68.23 70.28 71.16 71.86 72.52 72.89 73.15 74.23 76.01 76.26 76.62 76.97 77.25 76.44 76.89 77.39 77.47 76.95 75.39 78.58 79.18 76.38 78.81 75.46 76.53 76.90 78.24 78.33 78.33 79.17 80.92 77.05 77.56
67.13 69.82 70.43 71.52 72.62 73.19 73.66 73.88 74.97 76.67 77.28 77.18 77.49 76.63 77.56 77.20 77.32 77.85 78.39 79.45 79.69 78.91 79.24 78.98 77.39 77.12 76.91 77.60 78.66 78.98 80.80 78.82 79.89
65.75 66.97 69.26 70.41 71.72 73.36 74.11 74.52 74.39 74.82 76.19 77.12 77.31 77.21 77.25 77.21 77.41 77.21 78.02 77.70 78.91 79.09 79.87 80.23 79.48 78.59 77.51 77.19 77.38 78.69 80.27 80.12 79.27
64.97 66.11 67.43 68.89 71.10 72.52 73.54 74.10 74.34 74.61 74.91 74.81 76.32 77.25 77.58 77.34 78.19 78.05 77.73 77.75 77.99 79.30 79.26 80.30 80.20 79.68 78.99 78.05 77.47 79.28 78.98 77.17 77.49
64.14 65.24 66.10 66.91 69.47 71.91 72.91 73.93 75.45 75.08 75.05 74.89 75.40 76.88 76.67 77.64 77.87 78.11 77.85 78.33 78.57 78.79 79.51 79.92 79.42 79.74 79.69 79.04 77.99 78.31 78.94 79.25 78.20
65.62 65.96 65.35 67.49 69.21 70.91 73.20 74.94 76.58 77.03 75.52 75.50 75.50 75.61 75.78 77.03 77.93 78.29 78.18 78.86 79.01 79.23 79.95 79.79 79.70 80.35 80.32 79.77 79.03 78.28 77.51 78.05 78.94
64.41 64.93 66.99 66.58 68.41 70.22 72.90 74.44 77.27 77.42 76.18 77.34 76.71 76.94 76.49 77.13 78.57 79.05 79.05 78.68 79.25 79.68 79.89 79.80 80.41 80.25 80.09 79.67 78.66 77.16 78.05 77.95 78.31
63.99 65.17 66.81 68.44 69.51 70.45 71.87 73.57 74.95 77.23 77.19 77.63 77.75 77.54 76.56 77.62 78.65 79.05 78.85 78.85 79.14 79.56 79.72 79.90 80.09 79.92 79.92 79.23 77.15 69.77 67.87 74.90 77.04
63.30 64.68 66.28 67.83 69.27 70.66 71.64 71.79 74.89 75.90 77.54 77.70 77.76 78.60 77.67 77.92 78.87 78.71 78.98 79.11 79.58 79.52 79.69 79.91 79.72 79.82 79.91 79.73 80.04 66.36 65.55 67.90 77.13
61.95 63.40 64.19 65.44 67.75 70.00 71.51 71.98 72.29 75.31 76.01 78.25 78.29 77.87 78.81 78.18 78.82 78.83 79.34 79.71 79.49 79.83 79.90 79.50 79.64 79.89 80.05 79.97 79.55 66.21 63.84 65.95 76.69
61.31 62.11 63.60 64.77 66.18 68.96 71.65 72.45 73.31 73.61 75.94 77.24 77.91 78.10 78.47 78.56 78.79 78.91 79.34 79.10 79.58 79.83 79.94 79.94 79.83 80.43 80.17 80.17 80.04 64.51 62.76 66.68 76.02
60.40 61.84 62.94 63.82 65.98 69.91 71.20 72.95 74.48 73.59 73.64 76.60 77.25 77.72 78.55 79.59 79.30 79.37 79.37 79.75 79.81 80.08 80.21 79.69 78.29 79.05 80.34 75.89 80.54 66.78 61.59 66.29 75.70
60.01 60.73 60.70 63.49 65.19 68.54 72.17 73.96 76.09 75.81 75.04 75.55 77.84 77.97 79.09 80.13 80.06 80.00 80.40 80.65 80.62 80.59 79.80 78.63 79.57 79.65 80.45 80.75 78.91 79.09 60.77 59.47 77.04
58.72 58.80 59.18 61.97 62.16 65.41 68.56 74.41 76.77 77.19 75.95 77.66 79.81 79.26 79.03 79.24 80.11 78.92 78.91 80.40 80.51 80.37 80.19 79.49 79.83 79.25 79.05 78.21 80.46 68.63 61.14 58.05 61.32
57.45 57.29 57.90 59.11 60.15 62.56 62.86 67.44 74.07 75.69 79.36 79.91 79.61 79.35 78.91 79.38 79.66 79.48 79.58 79.52 79.68 78.29 79.58 76.82 76.60 76.46 75.89 75.68 76.66 78.61 62.05 57.34 57.88
56.57 55.42 55.21 57.26 58.92 60.83 60.45 63.46 65.20 68.67 70.27 77.67 78.36 78.81 78.94 79.22 78.58 78.48 78.83 78.08 77.98 76.88 76.44 76.24 75.68 75.56 75.38 75.52 75.81 76.48 78.53 73.78 67.21
55.01 53.78 55.37 57.84 58.56 58.18 59.11 61.02 61.13 62.75 64.34 66.09 76.13 76.18 76.69 77.86 77.16 77.09 77.83 78.11 77.21 76.92 78.01 74.08 76.41 75.40 75.96 75.76 76.19 76.62 71.88 72.87 77.58
53.73 53.21 55.78 57.18 59.16 58.68 58.90 59.63 58.70 60.55 62.52 61.97 69.99 74.33 75.08 75.65 76.14 76.52 76.53 76.32 75.08 56.04 59.92 54.26 54.26 54.75 66.63 76.78 60.01 55.80 55.40 55.15 52.99
52.36 53.90 55.22 57.60 58.19 58.17 58.94 59.41 58.54 59.58 60.61 61.26 62.46 67.53 70.83 76.05 73.71 76.47 75.95 76.51 75.97 74.60 66.24 54.63 55.35 54.81 54.26 52.61 53.45 52.81 53.17 50.27 49.91